This is the latest recevied weather packets stored in our database for station/object KN4PLO. If no packets are shown the sender has not sent any weather packets the latest 1 day(s).
| Time | Temp. | Humidity | Pressure | Rain* | Wind** | Luminosity | Snow |
|---|---|---|---|---|---|---|---|
| 1778032972 | 20.56° C | 100% | - | 0 mm | 1.79 m/s, 237° | - | - |
| 1778032672 | 20.56° C | 100% | - | 0 mm | 4.92 m/s, 190° | - | - |
| 1778032643 | 20.56° C | 100% | - | 0 mm | 2.68 m/s, 192° | - | - |
| 1778032374 | 20.56° C | 100% | - | 0 mm | 3.13 m/s, 191° | - | - |
| 1778032072 | 20.56° C | 100% | - | 0 mm | 3.13 m/s, 179° | - | - |
| 1778032043 | 20.56° C | 100% | - | 0 mm | 2.68 m/s, 169° | - | - |
| 1778031772 | 20.56° C | 100% | - | 0 mm | 2.68 m/s, 176° | - | - |
| 1778031472 | 20.56° C | 100% | - | 0 mm | 2.24 m/s, 149° | - | - |
| 1778031444 | 20.56° C | 100% | - | 0 mm | 3.58 m/s, 222° | - | - |
| 1778031172 | 20.56° C | 100% | - | 0 mm | 2.24 m/s, 160° | - | - |
| 1778030872 | 20.56° C | 100% | - | 0 mm | 2.68 m/s, 169° | - | - |
| 1778030843 | 21.11° C | 100% | - | 0 mm | 1.79 m/s, 188° | - | - |
| 1778030572 | 21.11° C | 100% | - | 0 mm | 0.89 m/s, 210° | - | - |
| 1778030272 | 21.11° C | 100% | - | 0 mm | 1.79 m/s, 190° | - | - |
| 1778030245 | 21.11° C | 100% | - | 0 mm | 0.89 m/s, 210° | - | - |
| 1778029972 | 21.11° C | 100% | - | 0 mm | 1.79 m/s, 210° | - | - |
| 1778029672 | 21.11° C | 100% | - | 0 mm | 2.24 m/s, 168° | - | - |
| 1778029643 | 21.11° C | 100% | - | 0 mm | 2.68 m/s, 146° | - | - |
| 1778029372 | 21.11° C | 100% | - | 0 mm | 2.68 m/s, 176° | - | - |
| 1778029072 | 21.11° C | 100% | - | 0 mm | 2.68 m/s, 195° | - | - |
| 1778029043 | 21.11° C | 100% | - | 0 mm | 2.68 m/s, 173° | - | - |
| 1778028772 | 21.11° C | 100% | - | 0 mm | 2.24 m/s, 182° | - | - |
| 1778028472 | 21.67° C | 100% | - | 0 mm | 2.24 m/s, 200° | - | - |
| 1778028445 | 21.67° C | 100% | - | 0 mm | 0.89 m/s, 172° | - | - |
| 1778028173 | 21.67° C | 100% | - | 0 mm | 3.58 m/s, 160° | - | - |
* Rain latest hour (hover to see other rain measurements)
** Current wind speed in m/s (hover to see current wind gust speed)